Flag for Paraguay Weather past 2 weeks in Asuncion, Paraguay

Now
52 °F

Clear.


Feels Like: 52 °F
Forecast: 50 / 70 °F
Wind: No wind

Location: Asuncion / Aeropuerto

Current Time: May 29, 2015 at 5:29:07 AM

Latest Report: May 29, 2015 at 5:00 AM


Visibility: 6 mi

Pressure: 29.98 "Hg

Humidity: 100%

Dew point: 52 °F

Location of AsuncionLocation

Historic Weather in Asuncion — Graph

°F

Asuncion temperature yesterday

Maximum temperature yesterday: 70 °F (at 12:00 PM)
Minimum temperature yesterday: 55 °F (at 11:00 PM)
Average temperature yesterday: 64 °F

Past Weeks' High & Low Weather Summary

 TemperatureHumidityPressure
High102 °F (May 23, 3:00 PM)100% (May 15, 11:00 PM)30.18 "Hg (May 15, 11:00 PM)
Low52 °F (May 29, 3:00 AM)40% (May 23, 3:00 PM)29.71 "Hg (May 23, 5:00 PM)
Average71 °F87%29.99 "Hg
* Reported May 14 5:00 AM — May 29 4:00 AM, Asuncion, Weather by CustomWeather, © 2015

Note: Actual official high and low records may vary slightly from our data, if they occured in-between our weather recording intervals... More about our weather records

Advertising

Asuncion weather history for previous 24 hours

 ConditionsComfort  
Time TempWeatherWind HumidityBarometerVisibility
4:00 AM
Fri, May 29
52 °FClear.No wind100%29.98 "Hg5 mi
3:00 AM52 °FClear.No wind100%29.98 "Hg5 mi
2:00 AM54 °FClear.No wind100%30.01 "Hg6 mi
1:00 AM54 °FClear.No wind100%30.04 "Hg10 mi
12:00 AM55 °FClear.No wind94%30.04 "Hg10 mi
11:00 PM
Thu, May 28
55 °FClear.No wind100%30.07 "Hg10 mi
10:00 PM57 °FClear.6 mph94%30.07 "Hg10 mi
9:00 PM59 °FClear.7 mph88%30.07 "Hg10 mi
8:00 PM59 °FClear.6 mph88%30.07 "Hg10 mi
7:00 PM61 °FClear.No wind83%30.04 "Hg10 mi
6:00 PM61 °FPassing clouds.5 mph83%30.04 "HgN/A
5:00 PM64 °FPassing clouds.8 mph68%30.04 "HgN/A
4:00 PM68 °FScattered clouds.10 mph56%30.04 "HgN/A
3:00 PM70 °FScattered clouds.8 mph57%30.07 "HgN/A
2:00 PM70 °FScattered clouds.9 mph57%30.07 "HgN/A
1:00 PM68 °FPartly sunny.9 mph64%30.09 "HgN/A
12:00 PM70 °FPartly sunny.8 mph60%30.12 "HgN/A
11:00 AM68 °FPartly sunny.8 mph69%30.15 "HgN/A
10:00 AM66 °FPartly sunny.9 mph73%30.15 "HgN/A
9:30 AM68 °FPartly sunny.9 mph64%30.15 "HgN/A
9:00 AM64 °FPartly sunny.10 mph78%30.15 "HgN/A
8:00 AM64 °FScattered clouds.6 mph73%30.15 "HgN/A
7:30 AM63 °FScattered clouds.5 mph83%30.15 "HgN/A
7:00 AM63 °FPartly sunny.3 mph83%30.15 "HgN/A
6:00 AM61 °FPartly sunny.7 mph88%30.12 "HgN/A
5:00 AM63 °FPartly cloudy.12 mph83%30.09 "HgN/A
Weather by CustomWeather, © 2015

See weather overviewHow to use our weather pages